Location: Hochstatterhof
(48.7256°N, 10.3487°E)
Time: 02:14:44
(UTC+00:00)

Cosmos 2322 Rocket - Pass Details

Date: 26 September 2023
Orbit: 831 x 852 km, 71.0° (Epoch: 04 December)

Event Time Altitude Azimuth Distance (km) Brightness Sun altitude
Rises 03:43:00 0° 325° (NW) 3,398 5.2 -15.0°
Reaches altitude 10° 03:45:39 10° 316° (NW) 2,462 4.3 -14.6°
Maximum altitude 03:50:35 32° 255° (WSW) 1,404 2.8 -13.8°
Drops below altitude 10° 03:55:32 10° 193° (SSW) 2,460 4.4 -13.0°
Sets 03:58:12 0° 184° (S) 3,393 5.2 -12.6°
